PDA1204 LBBG-UKWW

Flight info

Callsign PDA1204
Flight time 1h 16m
Altitude 37000
Route TUGSO DCT PILAT/K0835F370 DCT LOBRO N743 NIROV
Aircraft B738/M-SDE2E3FGHIRWXY/LB1

Departure

Time 2026-04-22 12:04
Airport Burgas Airport (LBBG)

Arrival

Time 2026-04-22 13:20
Airport Vinnytsia/Gavyryshivka International Airport (UKWW)
Time Latitude Longitude Altitude Speed Heading
2026-04-22 11:48 42.56619 27.51570 173 ft 0 kts 156°
2026-04-22 11:57 42.56625 27.51569 173 ft 4 kts 186°
2026-04-22 11:57 42.56650 27.51567 173 ft 4 kts 181°
2026-04-22 11:57 42.56673 27.51576 173 ft 4 kts 223°
2026-04-22 11:58 42.56689 27.51602 173 ft 2 kts 229°
2026-04-22 11:58 42.56690 27.51602 173 ft 0 kts 229°
2026-04-22 11:59 42.56665 27.51564 173 ft 13 kts 229°
2026-04-22 12:00 42.56573 27.51424 172 ft 25 kts 227°
2026-04-22 12:00 42.56457 27.51245 172 ft 24 kts 230°
2026-04-22 12:00 42.56347 27.51079 172 ft 23 kts 225°
2026-04-22 12:00 42.56243 27.50921 172 ft 22 kts 227°
2026-04-22 12:01 42.56139 27.50768 172 ft 22 kts 227°
2026-04-22 12:01 42.56038 27.50621 172 ft 21 kts 229°
2026-04-22 12:01 42.55942 27.50475 172 ft 20 kts 228°
2026-04-22 12:01 42.55908 27.50321 172 ft 18 kts 306°
2026-04-22 12:02 42.55919 27.50305 172 ft 0 kts 313°
2026-04-22 12:02 42.55920 27.50304 172 ft 1 kts 313°
2026-04-22 12:02 42.55963 27.50245 171 ft 16 kts 321°
2026-04-22 12:02 42.56044 27.50243 171 ft 0 kts 43°
2026-04-22 12:03 42.56106 27.50325 172 ft 42 kts 44°
2026-04-22 12:03 42.56412 27.50730 173 ft 91 kts 44°
2026-04-22 12:03 42.57027 27.51554 176 ft 154 kts 46°
2026-04-22 12:03 42.57804 27.52735 604 ft 173 kts 53°
2026-04-22 12:04 42.58555 27.53975 1609 ft 167 kts 43°
2026-04-22 12:04 42.59582 27.54758 2389 ft 177 kts 25°
2026-04-22 12:04 42.60794 27.55558 2725 ft 208 kts 27°
2026-04-22 12:04 42.62247 27.56167 2989 ft 230 kts
2026-04-22 12:05 42.63885 27.56178 3535 ft 244 kts 360°
2026-04-22 12:05 42.65628 27.56207 4108 ft 258 kts
2026-04-22 12:05 42.67425 27.56270 5081 ft 258 kts
2026-04-22 12:05 42.69234 27.56356 6010 ft 261 kts
2026-04-22 12:06 42.71045 27.56460 6959 ft 261 kts
2026-04-22 12:06 42.72882 27.56578 7795 ft 266 kts
2026-04-22 12:06 42.74745 27.56705 8633 ft 270 kts
2026-04-22 12:06 42.76636 27.56840 9482 ft 274 kts
2026-04-22 12:07 42.78552 27.56981 10290 ft 278 kts
2026-04-22 12:07 42.80562 27.57130 10617 ft 302 kts
2026-04-22 12:07 42.82742 27.57291 10870 ft 325 kts
2026-04-22 12:07 42.85041 27.57467 11496 ft 334 kts
2026-04-22 12:08 42.87384 27.57649 12284 ft 339 kts
2026-04-22 12:08 42.89755 27.57832 13034 ft 344 kts
2026-04-22 12:08 42.92161 27.58017 13808 ft 348 kts
2026-04-22 12:08 42.94589 27.58252 14530 ft 353 kts
2026-04-22 12:09 42.97043 27.58773 15210 ft 360 kts
2026-04-22 12:09 42.99516 27.59444 15888 ft 365 kts
2026-04-22 12:09 43.02013 27.60163 16549 ft 369 kts
2026-04-22 12:09 43.04541 27.60892 17222 ft 373 kts
2026-04-22 12:10 43.07068 27.61606 17869 ft 378 kts
2026-04-22 12:10 43.09656 27.62325 18507 ft 382 kts
2026-04-22 12:10 43.12272 27.63041 19101 ft 385 kts
2026-04-22 12:10 43.14907 27.63755 19733 ft 387 kts
2026-04-22 12:11 43.17563 27.64470 20432 ft 390 kts
2026-04-22 12:11 43.20252 27.65191 21058 ft 394 kts
2026-04-22 12:11 43.22954 27.65915 21654 ft 398 kts
2026-04-22 12:11 43.25686 27.66646 22220 ft 401 kts
2026-04-22 12:12 43.28431 27.67382 22766 ft 404 kts
2026-04-22 12:12 43.31214 27.68129 23301 ft 407 kts
2026-04-22 12:12 43.34008 27.68879 23787 ft 411 kts
2026-04-22 12:12 43.36824 27.69636 24221 ft 414 kts
2026-04-22 12:13 43.39633 27.70392 24649 ft 416 kts
2026-04-22 12:13 43.42485 27.71160 25060 ft 419 kts
2026-04-22 12:13 43.45362 27.71935 25473 ft 422 kts
2026-04-22 12:13 43.48251 27.72715 25878 ft 425 kts
2026-04-22 12:14 43.51168 27.73503 26267 ft 428 kts
2026-04-22 12:14 43.54097 27.74294 26666 ft 431 kts
2026-04-22 12:14 43.57043 27.75092 27048 ft 433 kts
2026-04-22 12:14 43.60015 27.75897 27426 ft 436 kts
2026-04-22 12:15 43.62999 27.76706 27788 ft 439 kts
2026-04-22 12:15 43.66004 27.77521 28148 ft 441 kts
2026-04-22 12:15 43.69029 27.78343 28491 ft 444 kts
2026-04-22 12:15 43.72070 27.79170 28829 ft 447 kts
2026-04-22 12:16 43.75088 27.79992 29177 ft 449 kts
2026-04-22 12:16 43.78169 27.80832 29507 ft 451 kts
2026-04-22 12:16 43.81264 27.81677 29833 ft 454 kts
2026-04-22 12:16 43.84370 27.82526 30227 ft 454 kts
2026-04-22 12:17 43.87436 27.83367 30627 ft 452 kts
2026-04-22 12:17 43.90554 27.84222 31043 ft 451 kts
2026-04-22 12:17 43.93633 27.85067 31380 ft 451 kts
2026-04-22 12:17 43.96679 27.85902 31704 ft 452 kts
2026-04-22 12:18 43.99763 27.86748 32070 ft 451 kts
2026-04-22 12:18 44.02842 27.87595 32417 ft 451 kts
2026-04-22 12:18 44.05923 27.88443 32737 ft 451 kts
2026-04-22 12:18 44.09003 27.89290 33037 ft 451 kts
2026-04-22 12:19 44.12079 27.90138 33369 ft 451 kts
2026-04-22 12:19 44.15159 27.90989 33695 ft 450 kts
2026-04-22 12:19 44.18236 27.91839 33993 ft 451 kts
2026-04-22 12:19 44.21316 27.92690 34243 ft 451 kts
2026-04-22 12:20 44.24388 27.93541 34490 ft 451 kts
2026-04-22 12:20 44.27462 27.94394 34734 ft 451 kts
2026-04-22 12:20 44.30539 27.95248 34957 ft 451 kts
2026-04-22 12:20 44.32584 27.95815 35069 ft 452 kts
2026-04-22 12:21 44.39811 27.97824 35066 ft 456 kts
2026-04-22 12:21 44.45997 27.99553 35058 ft 449 kts
2026-04-22 12:22 44.51122 28.00986 35074 ft 448 kts
2026-04-22 12:22 44.57243 28.02698 35070 ft 448 kts
2026-04-22 12:23 44.63324 28.04403 35076 ft 448 kts
2026-04-22 12:23 44.69450 28.06125 35068 ft 449 kts
2026-04-22 12:24 44.75579 28.07852 35082 ft 450 kts
2026-04-22 12:24 44.81734 28.09590 35081 ft 451 kts
2026-04-22 12:25 44.87866 28.11541 35074 ft 452 kts 10°
2026-04-22 12:25 44.93934 28.13716 35069 ft 453 kts 10°
2026-04-22 12:26 45.00046 28.15909 35069 ft 452 kts 10°
2026-04-22 12:26 45.06149 28.18065 35069 ft 452 kts 10°
2026-04-22 12:27 45.12264 28.20211 35071 ft 452 kts 10°
2026-04-22 12:27 45.18379 28.22359 35068 ft 452 kts 10°
2026-04-22 12:28 45.24484 28.24508 35069 ft 452 kts 10°
2026-04-22 12:28 45.30536 28.26645 35060 ft 451 kts 10°
2026-04-22 12:29 45.36625 28.28800 35060 ft 450 kts 10°
2026-04-22 12:29 45.42705 28.30956 35059 ft 450 kts 10°
2026-04-22 12:30 45.51814 28.34196 35060 ft 449 kts 10°
2026-04-22 12:31 45.57885 28.36361 35059 ft 449 kts 11°
2026-04-22 12:31 45.63952 28.38529 35056 ft 449 kts 11°
2026-04-22 12:32 45.70009 28.40699 35059 ft 449 kts 11°
2026-04-22 12:32 45.79057 28.43949 35060 ft 449 kts 11°
2026-04-22 12:33 45.85118 28.46132 35048 ft 448 kts 11°
2026-04-22 12:33 45.91166 28.48316 35056 ft 448 kts 11°
2026-04-22 12:34 45.97210 28.50503 35057 ft 448 kts 11°
2026-04-22 12:34 46.03265 28.52699 35046 ft 448 kts 11°
2026-04-22 12:35 46.09266 28.54880 35051 ft 447 kts 11°
2026-04-22 12:35 46.15311 28.57083 35053 ft 447 kts 11°
2026-04-22 12:36 46.21334 28.59281 35048 ft 446 kts 11°
2026-04-22 12:36 46.27355 28.61485 35046 ft 446 kts 12°
2026-04-22 12:37 46.33368 28.63691 35050 ft 446 kts 12°
2026-04-22 12:37 46.39388 28.65904 35044 ft 446 kts 12°
2026-04-22 12:38 46.45404 28.68121 35052 ft 446 kts 12°
2026-04-22 12:38 46.51377 28.70327 35044 ft 446 kts 12°
2026-04-22 12:39 46.60430 28.73352 35043 ft 443 kts
2026-04-22 12:40 46.66570 28.73474 35044 ft 440 kts 357°
2026-04-22 12:40 46.72693 28.73361 35042 ft 440 kts 357°
2026-04-22 12:41 46.78783 28.73289 35052 ft 440 kts 358°
2026-04-22 12:41 46.84905 28.73262 35049 ft 440 kts 358°
2026-04-22 12:42 46.91021 28.73252 35045 ft 439 kts 358°
2026-04-22 12:42 46.97131 28.73244 35052 ft 439 kts 358°
2026-04-22 12:43 47.03224 28.73236 35047 ft 437 kts 358°
2026-04-22 12:43 47.09246 28.73228 35037 ft 429 kts 358°
2026-04-22 12:44 47.15191 28.73218 35029 ft 424 kts 358°
2026-04-22 12:44 47.18105 28.73213 34829 ft 422 kts 358°
2026-04-22 12:44 47.21027 28.73208 34539 ft 416 kts 358°
2026-04-22 12:44 47.23912 28.73204 34153 ft 413 kts 359°
2026-04-22 12:45 47.26776 28.73200 33739 ft 410 kts 359°
2026-04-22 12:45 47.29618 28.73195 33306 ft 407 kts 359°
2026-04-22 12:45 47.32446 28.73190 32898 ft 404 kts 359°
2026-04-22 12:45 47.35246 28.73185 32505 ft 400 kts 359°
2026-04-22 12:46 47.38030 28.73180 32108 ft 397 kts 359°
2026-04-22 12:46 47.40753 28.73176 31732 ft 394 kts 359°
2026-04-22 12:46 47.43488 28.73171 31348 ft 391 kts 359°
2026-04-22 12:46 47.46202 28.73166 30974 ft 388 kts 359°
2026-04-22 12:47 47.48893 28.73161 30603 ft 385 kts 360°
2026-04-22 12:47 47.51568 28.73157 30234 ft 383 kts 360°
2026-04-22 12:47 47.54221 28.73152 29818 ft 380 kts
2026-04-22 12:47 47.56857 28.73147 29387 ft 377 kts
2026-04-22 12:48 47.59471 28.73143 29001 ft 372 kts
2026-04-22 12:48 47.62046 28.73138 28618 ft 368 kts
2026-04-22 12:48 47.64599 28.73134 28232 ft 365 kts
2026-04-22 12:48 47.67123 28.73130 27852 ft 361 kts
2026-04-22 12:49 47.69628 28.73125 27485 ft 358 kts
2026-04-22 12:49 47.72107 28.73121 27106 ft 355 kts
2026-04-22 12:49 47.74572 28.73117 26740 ft 352 kts
2026-04-22 12:49 47.77017 28.73113 26372 ft 350 kts
2026-04-22 12:50 47.79444 28.73109 26013 ft 347 kts
2026-04-22 12:50 47.81849 28.73105 25656 ft 345 kts
2026-04-22 12:50 47.84238 28.73101 25311 ft 342 kts
2026-04-22 12:50 47.86614 28.73097 24958 ft 340 kts
2026-04-22 12:51 47.88940 28.73093 24613 ft 338 kts
2026-04-22 12:51 47.91286 28.73090 24275 ft 336 kts
2026-04-22 12:51 47.93625 28.73086 23920 ft 335 kts
2026-04-22 12:51 47.95949 28.73082 23567 ft 333 kts
2026-04-22 12:52 47.98261 28.73078 23162 ft 332 kts
2026-04-22 12:52 48.00560 28.73075 22791 ft 329 kts
2026-04-22 12:52 48.02837 28.73071 22451 ft 325 kts
2026-04-22 12:52 48.05099 28.73067 22102 ft 323 kts
2026-04-22 12:53 48.07332 28.73063 21769 ft 320 kts
2026-04-22 12:53 48.09553 28.73060 21427 ft 318 kts
2026-04-22 12:53 48.11766 28.73056 21086 ft 316 kts
2026-04-22 12:53 48.13948 28.73169 20752 ft 313 kts
2026-04-22 12:54 48.16078 28.73437 20432 ft 310 kts
2026-04-22 12:54 48.18223 28.73754 20108 ft 308 kts
2026-04-22 12:54 48.20348 28.74076 19781 ft 306 kts
2026-04-22 12:54 48.22466 28.74392 19459 ft 305 kts
2026-04-22 12:55 48.24569 28.74700 19143 ft 303 kts
2026-04-22 12:55 48.26665 28.75003 18823 ft 302 kts
2026-04-22 12:55 48.28754 28.75301 18512 ft 301 kts
2026-04-22 12:55 48.30853 28.75600 18179 ft 308 kts
2026-04-22 12:56 48.33088 28.75921 17831 ft 333 kts
2026-04-22 12:56 48.35403 28.76248 17424 ft 334 kts
2026-04-22 12:56 48.37710 28.76571 17052 ft 332 kts
2026-04-22 12:56 48.40010 28.76892 16692 ft 332 kts
2026-04-22 12:57 48.42317 28.77215 16339 ft 334 kts
2026-04-22 12:57 48.44635 28.77540 15991 ft 335 kts
2026-04-22 12:57 48.46957 28.77866 15612 ft 335 kts
2026-04-22 12:57 48.49274 28.78191 15247 ft 333 kts
2026-04-22 12:58 48.51576 28.78515 14899 ft 332 kts
2026-04-22 12:58 48.53872 28.78838 14541 ft 331 kts
2026-04-22 12:58 48.56159 28.79160 14190 ft 330 kts
2026-04-22 12:58 48.58414 28.79478 13838 ft 329 kts
2026-04-22 12:59 48.60700 28.79801 13434 ft 329 kts
2026-04-22 12:59 48.62964 28.80122 13048 ft 325 kts
2026-04-22 12:59 48.65200 28.80438 12713 ft 320 kts
2026-04-22 12:59 48.67405 28.80750 12354 ft 317 kts
2026-04-22 13:00 48.69586 28.81058 11993 ft 310 kts
2026-04-22 13:00 48.71694 28.81359 11669 ft 298 kts
2026-04-22 13:00 48.73723 28.81654 11330 ft 288 kts
2026-04-22 13:00 48.75702 28.81948 11016 ft 285 kts
2026-04-22 13:01 48.77675 28.82251 10705 ft 283 kts
2026-04-22 13:01 48.79633 28.82560 10386 ft 283 kts
2026-04-22 13:01 48.81581 28.82876 10165 ft 278 kts
2026-04-22 13:01 48.83483 28.83192 10027 ft 271 kts
2026-04-22 13:02 48.85324 28.83504 9756 ft 269 kts
2026-04-22 13:02 48.87156 28.83817 9445 ft 261 kts
2026-04-22 13:02 48.88936 28.84126 9183 ft 256 kts
2026-04-22 13:02 48.90704 28.84436 8896 ft 255 kts
2026-04-22 13:03 48.92461 28.84747 8627 ft 252 kts
2026-04-22 13:03 48.94199 28.85058 8355 ft 251 kts
2026-04-22 13:03 48.95930 28.85369 8088 ft 250 kts
2026-04-22 13:03 48.97652 28.85677 7755 ft 247 kts
2026-04-22 13:04 48.99354 28.85985 7294 ft 247 kts
2026-04-22 13:04 49.01066 28.86297 6809 ft 248 kts
2026-04-22 13:04 49.02785 28.86612 6328 ft 249 kts
2026-04-22 13:04 49.04480 28.86671 6056 ft 238 kts 344°
2026-04-22 13:05 49.05870 28.85451 5797 ft 229 kts 319°
2026-04-22 13:05 49.07068 28.83888 5455 ft 226 kts 321°
2026-04-22 13:05 49.08265 28.82407 5126 ft 218 kts 322°
2026-04-22 13:05 49.09435 28.80996 4786 ft 210 kts 322°
2026-04-22 13:06 49.10565 28.79655 4451 ft 203 kts 323°
2026-04-22 13:06 49.11649 28.78379 4125 ft 196 kts 323°
2026-04-22 13:06 49.12711 28.77126 3823 ft 190 kts 323°
2026-04-22 13:06 49.13731 28.75893 3571 ft 184 kts 321°
2026-04-22 13:07 49.14701 28.74696 3364 ft 177 kts 320°
2026-04-22 13:07 49.15591 28.73473 3145 ft 164 kts 317°
2026-04-22 13:07 49.16410 28.72331 2947 ft 160 kts 319°
2026-04-22 13:07 49.17205 28.71203 2771 ft 150 kts 317°
2026-04-22 13:08 49.17968 28.70147 2516 ft 144 kts 319°
2026-04-22 13:08 49.18723 28.69096 2322 ft 147 kts 319°
2026-04-22 13:08 49.19449 28.68071 2118 ft 139 kts 319°
2026-04-22 13:08 49.20147 28.67105 1944 ft 134 kts 319°
2026-04-22 13:09 49.20844 28.66127 1733 ft 139 kts 317°
2026-04-22 13:09 49.21305 28.65447 1611 ft 139 kts 318°
2026-04-22 13:09 49.22219 28.64115 1380 ft 133 kts 320°
2026-04-22 13:09 49.22695 28.63473 1208 ft 137 kts 321°
2026-04-22 13:10 49.23421 28.62505 1028 ft 139 kts 319°
2026-04-22 13:10 49.24323 28.61300 1151 ft 134 kts 321°
2026-04-22 13:10 49.24874 28.60702 1499 ft 157 kts 328°
2026-04-22 13:10 49.25881 28.59732 2266 ft 176 kts 332°
2026-04-22 13:11 49.26917 28.58679 2833 ft 197 kts 321°
2026-04-22 13:11 49.28005 28.57137 2885 ft 227 kts 308°
2026-04-22 13:11 49.28484 28.54842 2973 ft 236 kts 269°
2026-04-22 13:11 49.27980 28.52413 3648 ft 245 kts 241°
2026-04-22 13:12 49.26781 28.50579 3937 ft 251 kts 211°
2026-04-22 13:12 49.25095 28.49875 3961 ft 256 kts 178°
2026-04-22 13:12 49.23390 28.50651 3989 ft 255 kts 146°
2026-04-22 13:12 49.22198 28.52586 3990 ft 249 kts 115°
2026-04-22 13:13 49.21675 28.55077 4006 ft 247 kts 98°
2026-04-22 13:13 49.21413 28.57685 3992 ft 248 kts 95°
2026-04-22 13:13 49.21177 28.60310 3979 ft 251 kts 96°
2026-04-22 13:13 49.20926 28.62947 3981 ft 249 kts 96°
2026-04-22 13:14 49.20522 28.65489 3955 ft 251 kts 118°
2026-04-22 13:14 49.19351 28.67420 3957 ft 253 kts 148°
2026-04-22 13:14 49.17791 28.68678 3937 ft 252 kts 153°
2026-04-22 13:14 49.16242 28.69850 3913 ft 242 kts 154°
2026-04-22 13:15 49.14770 28.70969 3923 ft 232 kts 153°
2026-04-22 13:15 49.13331 28.72074 3910 ft 235 kts 153°
2026-04-22 13:15 49.11877 28.73193 3864 ft 236 kts 153°
2026-04-22 13:15 49.10497 28.74417 3709 ft 221 kts 135°
2026-04-22 13:16 49.09863 28.76420 3473 ft 203 kts 86°
2026-04-22 13:16 49.10341 28.78213 3315 ft 179 kts 36°
2026-04-22 13:16 49.11442 28.78613 3294 ft 167 kts 341°
2026-04-22 13:16 49.12478 28.77672 3138 ft 179 kts 327°
2026-04-22 13:17 49.13470 28.76483 2988 ft 181 kts 319°
2026-04-22 13:17 49.14373 28.75184 2933 ft 174 kts 319°
2026-04-22 13:17 49.15214 28.74013 2931 ft 156 kts 319°
2026-04-22 13:17 49.15985 28.72875 2933 ft 156 kts 318°
2026-04-22 13:18 49.16819 28.71761 2788 ft 156 kts 318°
2026-04-22 13:18 49.17594 28.70674 2584 ft 145 kts 319°
2026-04-22 13:18 49.18309 28.69677 2464 ft 138 kts 319°
2026-04-22 13:18 49.19020 28.68652 2275 ft 137 kts 315°
2026-04-22 13:19 49.19705 28.67639 1999 ft 137 kts 320°
2026-04-22 13:19 49.20385 28.66654 1889 ft 133 kts 316°
2026-04-22 13:19 49.21092 28.65674 1749 ft 140 kts 320°
2026-04-22 13:19 49.21826 28.64661 1448 ft 143 kts 320°
2026-04-22 13:20 49.22557 28.63673 1209 ft 137 kts 320°
2026-04-22 13:20 49.23269 28.62718 1032 ft 136 kts 319°
2026-04-22 13:20 49.23923 28.61830 969 ft 108 kts 318°
2026-04-22 13:20 49.24363 28.61233 979 ft 48 kts 319°
2026-04-22 13:21 49.24470 28.61051 970 ft 14 kts 272°
2026-04-22 13:21 49.24424 28.60932 971 ft 13 kts 226°
2026-04-22 13:21 49.24400 28.60893 970 ft 0 kts 227°
2026-04-22 13:22 49.24379 28.60858 983 ft 11 kts 227°
2026-04-22 13:22 49.24321 28.60758 971 ft 13 kts 228°
2026-04-22 13:22 49.24271 28.60662 971 ft 8 kts 259°
2026-04-22 13:23 49.24284 28.60625 977 ft 7 kts 314°
2026-04-22 13:23 49.24291 28.60614 971 ft 0 kts 315°
2026-04-22 13:23 49.24292 28.60613 971 ft 0 kts 315°